Погода в Каламаки

Греция     35°01′45″N   24°45′37″E
темп.,
°C
ветер,
м/с
пор.,
м/с
влажн.,
%
обл.,
%
осадки,
мм/ч
давл.,
гПа
погр.,
м
14 мая, пт
пт1400:00+17з357493 0.0 1014304
03:00+17зсз44751 0.0 1013305
06:00+17зсз44750 0.0 1013327
09:00+19з33680 0.0 1015334
12:00+19з54720 0.0 1016396
15:00+18з557528 0.0 1016395
18:00+18зсз45700 0.0 1015347
21:00+17сз22775 0.0 1016156
15 мая, сб
сб1500:00+18св017018 0.0 1015115
03:00+17св11675 0.0 1014100
06:00+18в22550 0.0 101379
09:00+19юз21600 0.0 1015233
12:00+19зюз446615 0.0 1015350
15:00+20з4561100 0.0 1013319
18:00+20з4459100 0.0 1012207
21:00+19сз336534 0.0 101178
16 мая, вс
вс1600:00+18сз4567100 0.0 1011222
03:00+17зсз6881100 0.0 1010468
06:00+17зсз55804 0.0 1009374
09:00+20зсз23577 0.0 1010328
12:00+20з66615 0.0 1011525
15:00+20з98716 0.0 1010630
18:00+20з777333 0.0 1010482
21:00+19с337296 0.0 101077
17 мая, пн
пн1700:00+18св336523 0.0 101179
03:00+18вюв11675 0.0 101165
06:00+17вюв22755 0.0 1011188
09:00+20ююв11595 0.0 1012228
12:00+20ююз32660 0.0 1013378
15:00+19з336932 0.0 1014365
18:00+19з237632 0.0 1013231
21:00+18ссв11770 0.1 101473
18 мая, вт
вт1800:00+19всв00720 0.0 101437
03:00+19сз12720 0.0 101355
06:00+19зсз11740 0.0 101360
09:00+22юв226210 0.0 1013168
12:00+21ююз22714 0.0 1014261
15:00+21зюз336723 0.0 1014306
18:00+19зсз227637 0.0 1013230
21:00+19сз11720 0.0 101348